Home   Weather   Port of Spain   Past weeks

Flag for Trinidad and Tobago Past Weather in Port of Spain, Trinidad and Tobago — Yesterday and Last 2 Weeks

Now
79 °F

Passing clouds.


Feels Like: 82 °F
Forecast: 79 / 89 °F
Wind: 5 mph from East

Location: Piarco International Airport - Trinidad

Current Time: Apr 30, 2017 at 10:49:04 pm

Latest Report: Apr 30, 2017 at 10:00 pm


Visibility: N/A

Pressure: 29.98 "Hg

Humidity: 89%

Dew Point: 75 °F

Location of Port of SpainLocation

Past Weather in Port of Spain — Graph

°F

Port of Spain Temperature Yesterday

Maximum temperature yesterday: 93 °F (at 12:00 pm)
Minimum temperature yesterday: 79 °F (at 12:00 am)
Average temperature yesterday: 83 °F

High & Low Weather Summary for the Past Weeks

 TemperatureHumidityPressure
High95 °F (Apr 25, 1:00 pm)100% (Apr 18, 10:00 am)29.98 "Hg (Apr 18, 10:00 am)
Low70 °F (Apr 18, 10:00 am)41% (Apr 25, 1:00 pm)29.83 "Hg (Apr 20, 3:00 pm)
Average83 °F73%29.91 "Hg
* Reported Apr 15 9:00 pm — Apr 30 9:00 pm, Port of Spain, Weather by CustomWeather, © 2017

Note: Actual official high and low records may vary slightly from our data, if they occured in-between our weather recording intervals... More about our weather records

Advertising

Port of Spain Weather History for the Previous 24 Hours

Scroll right to see more
 ConditionsComfort  
Time TempWeatherWind HumidityBarometerVisibility
9:00 pm
Sun, Apr 30
79 °FPassing clouds.5 mph89%29.95 "HgN/A
8:00 pm79 °FScattered showers. Passing clouds.5 mph89%29.92 "Hg6 mi
7:00 pm79 °FScattered showers. Passing clouds.6 mph89%29.92 "HgN/A
6:00 pm79 °FScattered showers. Passing clouds.13 mph89%29.89 "Hg4 mi
5:00 pm84 °FScattered showers. Scattered clouds.21 mph70%29.89 "Hg4 mi
4:00 pm86 °FScattered showers. Scattered clouds.20 mph66%29.89 "HgN/A
3:00 pm90 °FScattered showers. Passing clouds.20 mph55%29.89 "HgN/A
2:00 pm91 °FScattered showers. Scattered clouds.23 mph52%29.92 "HgN/A
1:00 pm91 °FBroken clouds.21 mph52%29.92 "HgN/A
12:00 pm91 °FPartly sunny.21 mph52%29.95 "HgN/A
11:00 am90 °FBroken clouds.21 mph55%29.98 "HgN/A
10:00 am90 °FPartly sunny.17 mph55%29.98 "HgN/A
9:00 am86 °FScattered clouds.17 mph66%29.98 "HgN/A
8:00 am82 °FSprinkles. Passing clouds.14 mph79%29.98 "HgN/A
7:00 am79 °FPassing clouds.6 mph89%29.95 "HgN/A
6:00 am77 °FPassing clouds.No wind94%29.95 "HgN/A
5:00 am79 °FPassing clouds.5 mph89%29.92 "HgN/A
4:00 am77 °FScattered showers. Passing clouds.6 mph94%29.92 "HgN/A
3:00 am77 °FPassing clouds.No wind89%29.92 "HgN/A
2:00 am79 °FPassing clouds.No wind84%29.92 "HgN/A
1:00 am79 °FPassing clouds.No wind84%29.95 "HgN/A
12:00 am79 °FPassing clouds.No wind79%29.98 "HgN/A
11:00 pm
Sat, Apr 29
79 °FPassing clouds.No wind84%29.98 "HgN/A
10:00 pm79 °FPassing clouds.6 mph84%29.98 "HgN/A
Weather by CustomWeather, © 2017

See weather overviewHow to use our weather pages